Flag for Niger Weather past 2 weeks in Niamey, Niger

Now
82 °F

Clear.


Feels Like: 89 °F
Forecast: 79 / 97 °F
Wind: 5 mph from West

Location: Niamey-Aero

Current Time: Sep 22, 2014 at 3:26:17 AM

Latest Report: Sep 22, 2014 at 3:00 AM


Visibility: 10 mi

Pressure: 29.89 "Hg

Humidity: 79%

Dew point: 75 °F

Location of NiameyLocation

Historic Weather in Niamey — Graph

°F

Niamey temperature yesterday

Maximum temperature yesterday: 91 °F (at 1:00 PM)
Minimum temperature yesterday: 75 °F (at 6:00 AM)
Average temperature yesterday: 84 °F

Past Weeks' High & Low Weather Summary

 TemperatureHumidityPressure
High100 °F (Sep 20, 6:00 PM)100% (Sep 13, 11:00 PM)30.01 "Hg (Sep 13, 11:00 PM)
Low72 °F (Sep 16, 5:00 AM)20% (Sep 20, 6:00 PM)29.77 "Hg (Sep 20, 6:00 PM)
Average84 °F64%29.90 "Hg
* Reported Sep 7 2:00 AM — Sep 22 2:00 AM, Niamey, Weather by CustomWeather, © 2014

Note: Actual official high and low records may vary slightly from our data, if they occured in-between our weather recording intervals... More about our weather records

Advertising

Niamey weather history for previous 24 hours

 ConditionsComfort  
Time TempWeatherWind HumidityBarometerVisibility
2:00 AM
Sep 22
82 °FClear.3 mph74%29.89 "Hg10 mi
1:00 AM84 °FClear.5 mph70%29.92 "Hg10 mi
12:00 AM84 °FClear.5 mph70%29.95 "Hg10 mi
11:00 PM
Sep 21
86 °FClear.1 mph66%29.95 "Hg10 mi
10:00 PM86 °FClear.1 mph66%29.95 "Hg10 mi
9:00 PM86 °FClear.2 mph66%29.92 "Hg10 mi
8:00 PM88 °FClear.1 mph59%29.89 "Hg10 mi
7:00 PM88 °FPassing clouds.5 mph59%29.89 "HgN/A
6:00 PM91 °FPassing clouds.7 mph46%29.86 "HgN/A
5:00 PM91 °FPassing clouds.7 mph46%29.86 "HgN/A
4:00 PM91 °FPassing clouds.6 mph46%29.86 "HgN/A
3:00 PM91 °FPassing clouds.8 mph46%29.89 "HgN/A
2:00 PM91 °FPassing clouds.7 mph44%29.92 "HgN/A
1:00 PM91 °FSunny.3 mph44%29.92 "Hg10 mi
12:00 PM88 °FSunny.3 mph52%29.95 "Hg10 mi
11:00 AM86 °FPassing clouds.7 mph59%29.95 "HgN/A
10:00 AM81 °FPassing clouds.5 mph70%29.98 "HgN/A
9:00 AM79 °FPassing clouds.6 mph74%29.98 "HgN/A
8:00 AM77 °FSunny.3 mph74%29.95 "Hg10 mi
7:00 AM75 °FPassing clouds.5 mph83%29.92 "HgN/A
6:00 AM75 °FPassing clouds.5 mph83%29.92 "HgN/A
5:00 AM77 °FPassing clouds.5 mph79%29.89 "HgN/A
4:00 AM77 °FPassing clouds.7 mph79%29.89 "HgN/A
3:00 AM77 °FThunderstorms. Passing clouds.7 mph83%29.89 "HgN/A
Weather by CustomWeather, © 2014

See weather overviewHow to use our weather pages